Weather History for LTBS - September, 2013

Change the Weather History Date:

Tuesday, September 10, 2013

  Actual Average Record
Temperature  
Mean Temperature 76 °F -  
Max Temperature 89 °F 80 °F 95 °F (2000)
Min Temperature 64 °F 60 °F 51 °F (1996)
Cooling Degree Days 12    
Growing Degree Days 26 (Base 50)    
Moisture  
Dew Point 55 °F    
Average Humidity 49    
Maximum Humidity 73    
Minimum Humidity 18    
Precipitation  
Precipitation 0.00 in - - ()
Sea Level Pressure  
Sea Level Pressure 29.95 in    
Wind  
Wind Speed 7 mph ()    
Max Wind Speed 16 mph    
Max Gust Speed -    
Visibility 6.2 miles    
Events      
Averages and records for this station are not official NWS values.
T = Trace of Precipitation, MM = Missing Value Source: Averaged Metar Reports

Daily Weather History Graph

Daily Weather History Graph

Search for Another Location

Airport or City:

Trip Planner

Search our weather history database for the weather conditions in past years. The results will help you decide how hot, cold, wet, or windy it might be!

Date:

Astronomy

Sep. 10, 2013 Rise Set
Actual Time 6:43 AM EEST 7:19 PM EEST
Civil Twilight 6:16 AM EEST 7:45 PM EEST
Nautical Twilight 5:46 AM EEST 8:16 PM EEST
Astronomical Twilight 5:14 AM EEST 8:48 PM EEST
Moon 11:38 AM EEST (9/10) 10:16 PM EEST (9/10)
Length of Visible Light 13h 29m
Length of Day
12h 36m
Waxing Crescent, 25% of the Moon is Illuminated
Sep 10
Waxing Crescent
Sep 12
First Quarter
Sep 19
Full
Sep 27
Last Quarter
Oct 5
New

Hourly Weather History & Observations

Time (EEST) Temp. Heat Index Dew Point Humidity Pressure Visibility Wind Dir Wind Speed Gust Speed Precip Events Conditions
12:20 AM 69.8 °F - 55.4 °F 60% 29.95 in - ENE 5.8 mph - N/A   Clear
12:50 AM 68.0 °F - 57.2 °F 68% 29.95 in - ENE 4.6 mph - N/A   Clear
1:20 AM 66.2 °F - 57.2 °F 73% 29.95 in - ENE 6.9 mph - N/A   Clear
1:50 AM 66.2 °F - 57.2 °F 73% 29.95 in - ENE 6.9 mph - N/A   Clear
2:20 AM 64.4 °F - 51.8 °F 64% 29.95 in - NNE 6.9 mph - N/A   Clear
2:50 AM 66.2 °F - 50.0 °F 56% 29.95 in - NE 8.1 mph - N/A   Clear
3:20 AM 66.2 °F - 48.2 °F 52% 29.95 in - ENE 8.1 mph - N/A   Clear
3:50 AM 68.0 °F - 46.4 °F 46% 29.95 in - ENE 8.1 mph - N/A   Clear
4:20 AM 68.0 °F - 44.6 °F 43% 29.95 in - ENE 6.9 mph - N/A   Clear
4:50 AM 68.0 °F - 44.6 °F 43% 29.95 in - ENE 8.1 mph - N/A   Clear
5:20 AM 68.0 °F - 44.6 °F 43% 29.95 in - NE 8.1 mph - N/A   Clear
5:50 AM 68.0 °F - 42.8 °F 40% 29.98 in - ENE 8.1 mph - N/A   Clear
6:20 AM 68.0 °F - 42.8 °F 40% 29.98 in - ENE 8.1 mph - N/A   Clear
6:50 AM 68.0 °F - 42.8 °F 40% 29.98 in - East 6.9 mph - N/A   Clear
7:20 AM 66.2 °F - 46.4 °F 49% 29.98 in - ENE 5.8 mph - N/A   Clear
7:50 AM 68.0 °F - 44.6 °F 43% 29.98 in - ENE 5.8 mph - N/A   Clear
8:20 AM 73.4 °F - 44.6 °F 36% 29.98 in - ENE 5.8 mph - N/A   Clear
8:50 AM 77.0 °F - 46.4 °F 34% 29.98 in - NE 5.8 mph - N/A   Clear
9:00 AM 78 °F - 46 °F 22% 30.01 in 6 mi NE 5.8 mph - -  
9:20 AM 80.6 °F - 46.4 °F 30% 29.98 in - ENE 6.9 mph - N/A   Clear
9:50 AM 84.2 °F - 44.6 °F 25% 30.01 in - ENE 4.6 mph - N/A   Clear
10:20 AM 86.0 °F - 46.4 °F 25% 29.98 in - SE 3.5 mph - N/A   Clear
10:50 AM 87.8 °F - 39.2 °F 18% 29.98 in - Variable 3.5 mph - N/A   Clear
11:20 AM 86.0 °F - 48.2 °F 27% 29.98 in - WSW 10.4 mph - N/A   Clear
11:50 AM 86.0 °F - 46.4 °F 25% 29.98 in - SW 12.7 mph - N/A   Clear
12:20 PM 84.2 °F 84.4 °F 60.8 °F 45% 29.98 in - WSW 12.7 mph - N/A   Clear
12:50 PM 86.0 °F 85.4 °F 59.0 °F 40% 29.98 in 6.2 mi SSW 12.7 mph - N/A   Partly Cloudy
1:20 PM 86.0 °F 86.1 °F 60.8 °F 43% 29.98 in 6.2 mi SSW 13.8 mph - N/A   Partly Cloudy
1:50 PM 86.0 °F 87.3 °F 64.4 °F 48% 29.98 in 6.2 mi SSW 12.7 mph - N/A   Partly Cloudy
2:20 PM 86.0 °F 87.3 °F 64.4 °F 48% 29.98 in 6.2 mi SW 12.7 mph - N/A   Partly Cloudy
2:50 PM 86.0 °F 88.2 °F 66.2 °F 51% 29.95 in 6.2 mi SW 15.0 mph - N/A   Partly Cloudy
3:00 PM 86 °F - 64 °F 38% 29.97 in 6 mi SW 15.0 mph - -   Scattered Clouds
3:20 PM 86.0 °F 88.2 °F 66.2 °F 51% 29.95 in 6.2 mi WSW 15.0 mph - N/A   Partly Cloudy
3:50 PM 86.0 °F 89.4 °F 68.0 °F 55% 29.95 in 6.2 mi WSW 16.1 mph - N/A   Partly Cloudy
4:20 PM 84.2 °F 87.3 °F 68.0 °F 58% 29.92 in 6.2 mi WSW 16.1 mph - N/A   Partly Cloudy
4:50 PM 84.2 °F 87.3 °F 68.0 °F 58% 29.92 in 6.2 mi SW 15.0 mph - N/A   Partly Cloudy
5:20 PM 86.0 °F 88.2 °F 66.2 °F 51% 29.92 in 6.2 mi WSW 16.1 mph - N/A   Partly Cloudy
5:50 PM 84.2 °F 87.3 °F 68.0 °F 58% 29.92 in 6.2 mi WSW 15.0 mph - N/A   Partly Cloudy
6:20 PM 84.2 °F 86.6 °F 66.2 °F 55% 29.92 in - WSW 13.8 mph - N/A   Clear
6:50 PM 82.4 °F 85.4 °F 68.0 °F 62% 29.92 in - WSW 9.2 mph - N/A   Clear
7:20 PM 80.6 °F 83.2 °F 68.0 °F 65% 29.92 in - Variable 3.5 mph - N/A   Clear
7:50 PM 78.8 °F - 66.2 °F 65% 29.92 in - East 5.8 mph - N/A   Clear
8:20 PM 77.0 °F - 66.2 °F 69% 29.92 in - ENE 5.8 mph - N/A   Clear
8:50 PM 75.2 °F - 62.6 °F 65% 29.92 in - East 5.8 mph - N/A   Clear
9:00 PM 76 °F - 62 °F 52% 29.93 in 6 mi East 5.8 mph - -  
9:20 PM 75.2 °F - 59.0 °F 57% 29.92 in - NE 4.6 mph - N/A   Clear
9:50 PM 75.2 °F - 57.2 °F 53% 29.92 in - Variable 2.3 mph - N/A   Clear
10:20 PM 75.2 °F - 55.4 °F 50% 29.92 in - East 3.5 mph - N/A   Clear
10:50 PM 75.2 °F - 57.2 °F 53% 29.92 in - North 4.6 mph - N/A   Clear
11:20 PM 69.8 °F - 57.2 °F 64% 29.92 in - NE 4.6 mph - N/A   Clear
11:50 PM 73.4 °F - 55.4 °F 53% 29.92 in - ENE 4.6 mph - N/A   Clear